Regional Weather Roundup
Issued by NWS

Home | Current Version | Previous Version | Text Only | Print | Product List | Glossary Off
Versions: 1 2 3 4 5 6 7 8 9 10 11 12 13 14 15 16 17 18 19 20 21 22 23 24 25 26 27 28 29 30 31 32 33 34 35 36 37 38 39 40 41 42 43 44 45 46 47 48 49 50

000
ASUS43 KLMK 252102
RWRKY
KENTUCKY REGIONAL WEATHER ROUNDUP
NATIONAL WEATHER SERVICE LOUISVILLE KY
500 PM EDT MON JUL 25 2016

NOTE "FAIR" INDICATES FEW OR NO CLOUDS BELOW 12,000 FEET
WITH NO SIGNIFICANT WEATHER AND/OR OBSTRUCTIONS TO VISIBILITY.

KYZ001>023-026-027-061>063-070>075-252200-
WESTERN AND SOUTH CENTRAL KENTUCKY

CITY           SKY/WX    TMP DP  RH WIND       PRES   REMARKS
PADUCAH        LGT RAIN  84  75  74 SW5       29.96F HX  92
HENDERSON      PTSUNNY   81  72  74 E6        29.97S
OWENSBORO      TSTM      79  76  90 CALM      30.00R
HOPKINSVILLE   NOT AVBL
BOWLING GREEN  CLOUDY    89  75  63 S8        29.98S HX  99
GLASGOW        NOT AVBL
$$

KYZ024-025-028>034-038-045-046-053-252200-
NORTH CENTRAL KENTUCKY

CITY           SKY/WX    TMP DP  RH WIND       PRES   REMARKS
LOUISVILLE/SDF LGT RAIN  79  73  82 S5        30.00S
LOUISVILLE/LOU LGT RAIN  78  71  79 SE6       30.01R
FORT KNOX      NOT AVBL
$$

KYZ035>037-039>044-047>052-055>060-089>105-252200-
NORTHEAST KENTUCKY

CITY           SKY/WX    TMP DP  RH WIND       PRES   REMARKS
LEXINGTON      CLOUDY    83  75  77 S6        30.01F HX  90
COVINGTON      PTSUNNY   93  70  46 NW8       29.98R HX  99
FRANKFORT      MOSUNNY   86  75  69 VRB6      29.99R HX  95
$$

KYZ054-064>069-076>088-106>120-252200-
SOUTHEAST KENTUCKY

CITY           SKY/WX    TMP DP  RH WIND       PRES   REMARKS
JACKSON        CLOUDY    75  71  87 VRB3      30.04S
LONDON         MOSUNNY   90  69  50 W10       30.01S HX  94
SOMERSET       CLOUDY    90  70  51 W8        30.01S HX  95
MIDDLESBORO    CLOUDY    82  72  71 N5        30.03R
MONTICELLO     PTCLDY   N/A N/A N/A W12G17    30.02S
$$




USA.gov is the U.S. government's official web portal to all federal, state and local government web resources and services.